User: anonymous   Login
Location: Hertford
(51.8000°N, 0.0667°W)
Time: 15:56:32
(UTC+00:00)
Language:

Resurs 01 Rocket - Orbit

View from above orbital plane
View from above orbital plane
View from above satellite
View from above satellite

Ground track
Ground track

The orbit data is extracted from the following two-line orbital elements,

1 23343U 94074B   21163.90822823  .00000029  00000-0  11295-4 0  9999
2 23343  97.9461 218.6120 0008250  73.2024  99.9204 14.76883938431611
Epoch (UTC): 12 June 2021 21:47:50
Eccentricity: 0.0008250
inclination: 97.9461°
perigee height: 633 km
apogee height: 645 km
right ascension of ascending node: 218.6120°
argument of perigee: 73.2024°
revolutions per day: 14.76883938
mean anomaly at epoch: 99.9204°
orbit number at epoch: 43161

The dashed part of the orbit path shows where the satellite is in the earth's shadow,  

DLR